Location: Bailey Volunteer Fire Department
(33.4359°N, 96.1680°W)
Time: 17:08:39
(UTC+00:00)

SKYMED 2 - Pass Details

Date: 13 December 2025
Orbit: 622 x 623 km, 97.9° (Epoch: 14 January)

Event Time Altitude Azimuth Distance (km) Brightness Sun altitude
Rises 12:12:15 0° 184° (S) 2,888 7.2 -13.9°
Reaches altitude 10° 12:14:33 10° 192° (SSW) 1,985 6.2 -13.4°
Maximum altitude 12:18:35 39° 261° (W) 945 4.1 -12.6°
Drops below altitude 10° 12:22:39 10° 331° (NNW) 1,997 5.7 -11.8°
Enters shadow 12:22:59 - 332° (NNW) 2,121 5.9 -11.7°
